Flag for U.S.A. Weather past 2 weeks in San Luis Obispo, California, U.S.A.

Now
61 °F

Overcast.


Feels Like: 61 °F
Forecast: 58 / 73 °F
Wind: 7 mph from Northwest

Location: San Luis Obispo County-Mc Chesney Field

Current Time: Jul 6, 2015 at 2:44:13 AM

Latest Report: Jul 6, 2015 at 2:04 AM


Visibility: 10 mi

Pressure: 30.04 "Hg

Humidity: 87%

Dew point: 57 °F

Location of San Luis ObispoLocation

Historic Weather in San Luis Obispo — Graph

°F

San Luis Obispo temperature yesterday

Maximum temperature yesterday: 75 °F (at 2:56 PM)
Minimum temperature yesterday: 61 °F (at 12:56 AM)
Average temperature yesterday: 65 °F

Past Weeks' High & Low Weather Summary

 TemperatureHumidityPressure
High87 °F (Jun 30, 12:56 PM)100% (Jun 21, 12:56 AM)30.05 "Hg (Jun 21, 12:56 AM)
Low49 °F (Jun 23, 2:56 AM)33% (Jun 30, 2:56 PM)29.84 "Hg (Jul 1, 3:56 AM)
Average64 °F72%29.94 "Hg
* Reported Jun 21 12:56 AM — Jul 6 12:56 AM, San Luis Obispo, Weather by CustomWeather, © 2015

Note: Actual official high and low records may vary slightly from our data, if they occured in-between our weather recording intervals... More about our weather records

Advertising

San Luis Obispo weather history for previous 24 hours

 ConditionsComfort  
Time TempWeatherWind HumidityBarometerVisibility
12:56 AM
Mon, Jul 6
61 °FLow clouds.9 mph87%30.02 "Hg10 mi
11:56 PM
Sun, Jul 5
62 °FOvercast.8 mph83%30.02 "Hg10 mi
10:56 PM61 °FPassing clouds.7 mph83%30.01 "Hg10 mi
9:56 PM62 °FPassing clouds.10 mph80%30.01 "Hg10 mi
8:56 PM62 °FSunny.12 mph80%29.98 "Hg10 mi
7:56 PM64 °FSunny.12 mph75%29.97 "Hg10 mi
6:56 PM67 °FPassing clouds.15 mph68%29.95 "Hg10 mi
5:56 PM70 °FPassing clouds.14 mph61%29.95 "Hg10 mi
4:56 PM72 °FPassing clouds.17 mph57%29.95 "Hg10 mi
3:56 PM74 °FSunny.15 mph53%29.95 "Hg10 mi
2:56 PM75 °FSunny.14 mph52%29.96 "Hg10 mi
1:56 PM74 °FSunny.9 mph52%29.97 "Hg10 mi
12:56 PM73 °FSunny.7 mph55%29.98 "Hg10 mi
11:56 AM73 °FSunny.6 mph55%29.98 "Hg10 mi
10:56 AM67 °FScattered clouds.3 mph71%29.99 "Hg10 mi
9:56 AM65 °FBroken clouds.6 mph76%30.00 "Hg10 mi
8:56 AM63 °FMostly cloudy.3 mph78%30.01 "Hg10 mi
7:56 AM61 °FMostly cloudy.3 mph90%29.99 "Hg9 mi
6:56 AM61 °FLow clouds.3 mph87%29.97 "Hg10 mi
5:56 AM61 °FLow clouds.5 mph87%29.96 "Hg10 mi
4:56 AM61 °FLow clouds.5 mph87%29.94 "Hg10 mi
3:56 AM61 °FLow clouds.3 mph87%29.93 "Hg10 mi
2:56 AM61 °FLow clouds.No wind87%29.92 "Hg10 mi
Weather by CustomWeather, © 2015

See weather overviewHow to use our weather pages